Flag for China Weather past 2 weeks in Lanzhou, Gansu, China

Now
32 °F

Sunny.


Feels Like: 32 °F
Forecast: 14 / 35 °F
Wind: 1 mph from North

Location: Lanzhou / Zhongchuan

Current Time: Mar 1, 2015 at 1:15:18 PM

Latest Report: Mar 1, 2015 at 12:00 PM


Visibility: 10 mi

Pressure: 30.15 "Hg

Humidity: 51%

Dew point: 16 °F

Location of LanzhouLocation

Historic Weather in Lanzhou — Graph

°F

Lanzhou temperature yesterday

Maximum temperature yesterday: 32 °F (at 4:00 PM)
Minimum temperature yesterday: 19 °F (at 11:00 PM)
Average temperature yesterday: 26 °F

Past Weeks' High & Low Weather Summary

 TemperatureHumidityPressure
High50 °F (Feb 16, 5:00 PM)100% (Feb 24, 8:00 PM)30.36 "Hg (Feb 24, 8:00 PM)
Low9 °F (Feb 16, 8:00 AM)10% (Feb 16, 5:00 PM)29.68 "Hg (Feb 26, 4:00 PM)
Average30 °F50%30.03 "Hg
* Reported Feb 14 12:00 Noon — Mar 1 12:00 Noon, Lanzhou, Weather by CustomWeather, © 2015

Note: Actual official high and low records may vary slightly from our data, if they occured in-between our weather recording intervals... More about our weather records

Advertising

Lanzhou weather history for previous 24 hours

 ConditionsComfort  
Time TempWeatherWind HumidityBarometerVisibility
12:00 PM
Sun, Mar 1
32 °FSunny.1 mph51%30.15 "Hg10 mi
11:00 AM28 °FSunny.1 mph55%30.18 "Hg10 mi
10:00 AM25 °FSunny.1 mph63%30.18 "Hg10 mi
9:00 AM21 °FSunny.3 mph80%30.18 "Hg10 mi
8:00 AM16 °FClear.1 mph86%30.15 "Hg10 mi
7:00 AM16 °FClear.No wind86%30.15 "Hg10 mi
6:00 AM16 °FClear.No wind86%30.15 "Hg10 mi
5:00 AM16 °FClear.1 mph79%30.15 "Hg10 mi
4:00 AM16 °FClear.3 mph86%30.18 "Hg10 mi
3:00 AM16 °FClear.3 mph86%30.21 "Hg10 mi
2:00 AM18 °FClear.3 mph79%30.24 "Hg10 mi
1:00 AM19 °FClear.6 mph73%30.27 "Hg10 mi
12:00 AM18 °FClear.3 mph79%30.27 "Hg10 mi
11:00 PM
Sat, Feb 28
19 °FClear.3 mph73%30.27 "Hg5 mi
10:00 PM21 °FClear.1 mph74%30.27 "Hg5 mi
9:00 PM23 °FClear.No wind68%30.27 "Hg5 mi
8:00 PM27 °FClear.No wind54%30.27 "Hg10 mi
7:00 PM30 °FSunny.3 mph47%30.27 "Hg10 mi
6:00 PM32 °FPassing clouds.3 mph44%30.24 "HgN/A
5:00 PM32 °FSunny.1 mph44%30.27 "Hg10 mi
4:00 PM32 °FSunny.6 mph44%30.27 "Hg10 mi
3:00 PM30 °FPassing clouds.3 mph47%30.30 "HgN/A
2:00 PM30 °FPassing clouds.3 mph47%30.30 "HgN/A
1:00 PM28 °FPassing clouds.3 mph51%30.33 "HgN/A
Weather by CustomWeather, © 2015

See weather overviewHow to use our weather pages